Rbgn^[z[y[W
メイン
   新天体発見情報
     Comet P/2008 CL94 = 2021 A12 (Lemmon)
投稿するにはまず登録を

フラット表示 前のトピック | 次のトピック
投稿者 スレッド
佐藤裕久
投稿日時: 2021-7-7 0:03
モデレータ
登録日: 2005-6-12
居住地: 日本
投稿: 2445
オンライン
Comet P/2008 CL94 = 2021 A12 (Lemmon)

C. A. SchambeauとY. R. Fernandez (セントラルフロリダ大学, フロリダ宇宙研究所および
理学部)、M. Michel (欧州宇宙機関, NEO統合センター)、A. McKay (アメリカン大学,
物理学部およびNASA, ゴダード宇宙飛行センター)、M. S. P. Kelley (メリーランド大学, 
天文学部)とI. Wong (マサチューセッツ工科大学、地球惑星科学部)は、1月9日、15日UT、
Mauna Keaにある8.1-m Gemini North telescopeのGemini Multi-Object Spectrograph (GMOS)
で得たCCD画像から22.5〜23.0等のP/2008 CL94 (IAUC 9028参照)を検出した。

検出位置は次のとおり、

     2021 UT             R.A. (2000) Decl.       Mag.   Observer
     Jan.  9.27046    5 55 31.08   +32 06 05.2   22.5   Schambeau
           9.27435    5 55 30.97   +32 06 05.2   22.7     "
           9.27823    5 55 30.84   +32 06 05.1   22.9     "
           9.28212    5 55 30.72   +32 06 05.1   22.6     "
           9.30214    5 55 30.07   +32 06 04.9   23.0     "
           9.31537    5 55 29.65   +32 06 04.8   22.5     "
          15.31673    5 52 30.39   +32 03 59.4   22.9     "
          15.32831    5 52 30.05   +32 03 59.1   22.8     "
          15.33217    5 52 29.94   +32 03 59.0   22.6     "
          15.36181    5 52 29.08   +32 03 58.2   23.0     "
          15.36567    5 52 28.96   +32 03 58.1   22.7     "

NK 1837およびICQ's 2020 & 2021 Comet Handbookの中野主一氏の予報に対し、Delta(T)は、
+0.26 dayであった。
MPC 75708の予報に対するDelta(T)は、+0.24 dayであった。
彗星年表2020の佐藤裕久の予報に対する修正値は、Delta(T) = +0.65 dayであった。

MPCの連結軌道要素と位置推算表は次のとおり、

Orbital elements:
    P/2008 CL94 (Lemmon)                                                        
Epoch 2006 July 4.0 TT = JDT 2453920.5                                          
T 2006 July 10.06425 TT                                 Rudenko                 
q   5.4383275            (2000.0)            P               Q                  
n   0.06410714     Peri.   82.74334     -0.43702617     -0.89586955             
a   6.1829883      Node    33.54094     +0.75734843     -0.41459570             
e   0.1204370      Incl.    8.34192     +0.48521283     -0.15977532             
P  15.4                                                                         
From 74 observations 2008 Feb. 8-2021 Jan. 15, mean residual 0".5.              
                                                                                
    P/2008 CL94 (Lemmon)                                                        
Epoch 2021 Sept. 23.0 TT = JDT 2459480.5                                        
T 2021 Sept. 20.01229 TT                                Rudenko                 
q   5.4210049            (2000.0)            P               Q                  
n   0.06440664     Peri.   80.40782     -0.39655866     -0.91454121             
a   6.1638059      Node    33.31385     +0.77502617     -0.38007201             
e   0.1205101      Incl.    8.34618     +0.49201185     -0.13841839             
P  15.3                                                                         
From 74 observations 2008 Feb. 8-2021 Jan. 15, mean residual 0".5.              
                                                                                
    P/2008 CL94 (Lemmon)                                                        
Epoch 2021 July 5.0 TT = JDT 2459400.5                                          
T 2021 Sept. 20.56568 TT                                Rudenko                 
q   5.4209816            (2000.0)            P               Q                  
n   0.06441979     Peri.   80.44793     -0.39728640     -0.91422413             
a   6.1629673      Node    33.31941     +0.77472302     -0.38069603             
e   0.1203942      Incl.    8.34636     +0.49190218     -0.13879758             
P  15.3                                                                         
From 74 observations 2008 Feb. 8-2021 Jan. 15, mean residual 0".5.              
                                                                                
Ephemeris:
Date    TT    R. A. (2000) Decl.     Delta      r    Elong.  Phase   m1
2021 05 27    06 37 22.8 +30 00 56   6.2494  5.4292    33.1     5.9  21.3
...
2021 06 11    06 51 38.7 +29 42 36   6.3533  5.4272    22.3     4.1  21.4
...
2021 06 19    06 59 29.1 +29 31 41   6.3915  5.4263    16.7     3.1  21.4
...
2021 06 25    07 05 25.8 +29 22 59   6.4120  5.4256    12.8     2.4  21.4
2021 06 26    07 06 25.5 +29 21 30   6.4148  5.4255    12.2     2.3  21.4
2021 06 27    07 07 25.2 +29 19 59   6.4173  5.4254    11.6     2.2  21.4
...
2021 07 03    07 13 24.5 +29 10 43   6.4285  5.4248     8.4     1.6  21.4
...
2021 07 11    07 21 24.4 +28 57 43   6.4322  5.4241     6.8     1.3  21.4
...
2021 07 26    07 36 18.0 +28 31 47   6.4048  5.4229    13.6     2.5  21.4

(MPEC 2021-M89、CBET 4992、oaa-comet 2009)

フラット表示 前のトピック | 次のトピック

題名 投稿者 日時
 » Comet P/2008 CL94 = 2021 A12 (Lemmon) 佐藤裕久 2021-7-7 0:03

投稿するにはまず登録を
 
© 1999 Tsutomu Seki.